FDX289 PHNL-PHOG

Flight info

Callsign FDX289
Flight time 0h 39m
Altitude 7000
Route PALAY3 LNY CAMPS4
Aircraft C208/L-SDFGR/C

Departure

Time 2026-04-21 23:35
Airport Daniel K. Inouye International Airport (PHNL)

Arrival

Time 2026-04-22 00:14
Airport Kahului International Airport (PHOG)
Time Latitude Longitude Altitude Speed Heading
2026-04-21 23:29 21.31696 -157.91904 12 ft 0 kts 229°
2026-04-21 23:32 21.31695 -157.91905 12 ft 3 kts 236°
2026-04-21 23:32 21.31650 -157.92023 9 ft 29 kts 244°
2026-04-21 23:33 21.31530 -157.92225 7 ft 33 kts 231°
2026-04-21 23:33 21.31372 -157.92430 6 ft 36 kts 234°
2026-04-21 23:33 21.31295 -157.92621 10 ft 14 kts 322°
2026-04-21 23:33 21.31336 -157.92652 11 ft 0 kts 322°
2026-04-21 23:34 21.31349 -157.92663 11 ft 12 kts 323°
2026-04-21 23:34 21.31431 -157.92671 12 ft 8 kts 56°
2026-04-21 23:34 21.31434 -157.92666 11 ft 4 kts 56°
2026-04-21 23:34 21.31612 -157.92405 21 ft 81 kts 54°
2026-04-21 23:35 21.32001 -157.91882 287 ft 86 kts 57°
2026-04-21 23:35 21.32426 -157.91899 635 ft 68 kts 285°
2026-04-21 23:35 21.32159 -157.92286 819 ft 83 kts 204°
2026-04-21 23:35 21.31625 -157.92203 1236 ft 76 kts 146°
2026-04-21 23:36 21.31072 -157.91963 1403 ft 96 kts 156°
2026-04-21 23:36 21.30162 -157.91731 1040 ft 142 kts 173°
2026-04-21 23:36 21.29199 -157.91583 1277 ft 128 kts 175°
2026-04-21 23:36 21.28342 -157.91359 1543 ft 130 kts 163°
2026-04-21 23:37 21.27492 -157.91086 2009 ft 126 kts 164°
2026-04-21 23:37 21.26659 -157.90818 2451 ft 127 kts 163°
2026-04-21 23:37 21.25798 -157.90544 2879 ft 131 kts 164°
2026-04-21 23:37 21.24920 -157.90267 3315 ft 132 kts 163°
2026-04-21 23:38 21.24035 -157.89990 3745 ft 133 kts 163°
2026-04-21 23:38 21.23148 -157.89711 4168 ft 133 kts 164°
2026-04-21 23:38 21.22257 -157.89430 4494 ft 134 kts 163°
2026-04-21 23:38 21.21359 -157.89148 4846 ft 135 kts 164°
2026-04-21 23:39 21.20429 -157.88852 4996 ft 149 kts 164°
2026-04-21 23:39 21.19421 -157.88535 5222 ft 150 kts 164°
2026-04-21 23:39 21.18419 -157.88216 5461 ft 151 kts 164°
2026-04-21 23:39 21.17414 -157.87892 5716 ft 151 kts 164°
2026-04-21 23:40 21.16461 -157.87441 5937 ft 152 kts 137°
2026-04-21 23:40 21.16062 -157.86421 6181 ft 151 kts 97°
2026-04-21 23:40 21.15802 -157.85328 6408 ft 153 kts 112°
2026-04-21 23:40 21.15374 -157.84284 6627 ft 153 kts 115°
2026-04-21 23:41 21.14917 -157.83248 6840 ft 154 kts 116°
2026-04-21 23:41 21.14454 -157.82202 6982 ft 160 kts 116°
2026-04-21 23:41 21.13960 -157.81087 6980 ft 170 kts 116°
2026-04-21 23:41 21.13445 -157.79925 6983 ft 175 kts 116°
2026-04-21 23:42 21.12918 -157.78735 6986 ft 178 kts 116°
2026-04-21 23:42 21.12386 -157.77533 6981 ft 179 kts 116°
2026-04-21 23:42 21.11851 -157.76322 6984 ft 180 kts 116°
2026-04-21 23:42 21.11322 -157.75126 6983 ft 180 kts 116°
2026-04-21 23:43 21.10785 -157.73913 6979 ft 181 kts 116°
2026-04-21 23:43 21.10246 -157.72697 6975 ft 181 kts 116°
2026-04-21 23:43 21.09708 -157.71480 6972 ft 181 kts 116°
2026-04-21 23:43 21.09169 -157.70262 6968 ft 181 kts 116°
2026-04-21 23:44 21.08630 -157.69045 6964 ft 181 kts 116°
2026-04-21 23:44 21.08092 -157.67830 6968 ft 181 kts 116°
2026-04-21 23:44 21.07555 -157.66614 6976 ft 181 kts 116°
2026-04-21 23:44 21.07020 -157.65396 6972 ft 181 kts 116°
2026-04-21 23:45 21.06486 -157.64175 6978 ft 181 kts 116°
2026-04-21 23:45 21.05428 -157.61735 6983 ft 181 kts 115°
2026-04-21 23:45 21.04898 -157.60503 7016 ft 182 kts 115°
2026-04-21 23:46 21.04370 -157.59266 7059 ft 183 kts 115°
2026-04-21 23:46 21.03846 -157.58031 7066 ft 182 kts 115°
2026-04-21 23:46 21.03326 -157.56797 7066 ft 182 kts 115°
2026-04-21 23:46 21.02808 -157.55562 7061 ft 182 kts 115°
2026-04-21 23:47 21.02296 -157.54335 7133 ft 177 kts 115°
2026-04-21 23:47 21.01808 -157.53156 7334 ft 169 kts 114°
2026-04-21 23:47 21.01341 -157.52008 7508 ft 167 kts 114°
2026-04-21 23:47 21.00884 -157.50867 7673 ft 166 kts 114°
2026-04-21 23:48 21.00436 -157.49732 7843 ft 165 kts 113°
2026-04-21 23:48 20.99997 -157.48601 8010 ft 165 kts 113°
2026-04-21 23:48 20.99565 -157.47467 8181 ft 165 kts 113°
2026-04-21 23:48 20.99141 -157.46330 8351 ft 165 kts 112°
2026-04-21 23:49 20.98721 -157.45186 8523 ft 165 kts 112°
2026-04-21 23:49 20.98314 -157.44055 8694 ft 165 kts 112°
2026-04-21 23:49 20.97903 -157.42890 8873 ft 165 kts 111°
2026-04-21 23:49 20.97501 -157.41724 8954 ft 171 kts 111°
2026-04-21 23:50 20.97089 -157.40520 8957 ft 177 kts 111°
2026-04-21 23:50 20.96664 -157.39268 8959 ft 181 kts 111°
2026-04-21 23:50 20.96236 -157.37995 8959 ft 182 kts 111°
2026-04-21 23:50 20.95763 -157.36732 8963 ft 183 kts 119°
2026-04-21 23:51 20.95116 -157.35560 8966 ft 183 kts 122°
2026-04-21 23:51 20.94490 -157.34369 8964 ft 184 kts 119°
2026-04-21 23:51 20.93902 -157.33152 8963 ft 184 kts 118°
2026-04-21 23:51 20.93321 -157.31932 8963 ft 185 kts 118°
2026-04-21 23:52 20.92736 -157.30710 8961 ft 184 kts 118°
2026-04-21 23:52 20.92151 -157.29491 8965 ft 184 kts 118°
2026-04-21 23:52 20.91566 -157.28272 8969 ft 184 kts 118°
2026-04-21 23:52 20.90980 -157.27053 8973 ft 185 kts 118°
2026-04-21 23:53 20.90394 -157.25833 8978 ft 184 kts 118°
2026-04-21 23:53 20.89808 -157.24614 8982 ft 184 kts 118°
2026-04-21 23:53 20.89223 -157.23397 8997 ft 184 kts 118°
2026-04-21 23:53 20.88638 -157.22180 9000 ft 184 kts 118°
2026-04-21 23:54 20.88049 -157.20952 9016 ft 187 kts 118°
2026-04-21 23:54 20.87446 -157.19702 9026 ft 191 kts 118°
2026-04-21 23:54 20.86835 -157.18434 9024 ft 192 kts 118°
2026-04-21 23:54 20.86224 -157.17163 9031 ft 192 kts 119°
2026-04-21 23:55 20.85609 -157.15886 9029 ft 193 kts 119°
2026-04-21 23:55 20.85203 -157.15043 9031 ft 192 kts 118°
2026-04-21 23:55 20.84397 -157.13367 9030 ft 188 kts 118°
2026-04-21 23:55 20.83802 -157.12132 9033 ft 186 kts 118°
2026-04-21 23:56 20.83411 -157.11320 9039 ft 185 kts 118°
2026-04-21 23:56 20.82823 -157.10098 9044 ft 184 kts 118°
2026-04-21 23:56 20.82236 -157.08880 9048 ft 184 kts 118°
2026-04-21 23:56 20.81647 -157.07661 9053 ft 185 kts 118°
2026-04-21 23:57 20.80868 -157.06044 9057 ft 185 kts 118°
2026-04-21 23:57 20.80281 -157.04827 9058 ft 184 kts 118°
2026-04-21 23:57 20.79887 -157.04009 9062 ft 184 kts 118°
2026-04-21 23:57 20.79106 -157.02390 9063 ft 186 kts 118°
2026-04-21 23:58 20.78705 -157.01559 9064 ft 186 kts 118°
2026-04-21 23:58 20.78110 -157.00326 9064 ft 187 kts 119°
2026-04-21 23:58 20.77514 -156.99091 9064 ft 187 kts 118°
2026-04-21 23:58 20.76919 -156.97860 9065 ft 187 kts 118°
2026-04-21 23:59 20.76366 -156.96604 9055 ft 187 kts 108°
2026-04-21 23:59 20.76009 -156.95272 9060 ft 186 kts 107°
2026-04-21 23:59 20.75656 -156.93944 9059 ft 186 kts 107°
2026-04-21 23:59 20.75298 -156.92615 9059 ft 186 kts 107°
2026-04-22 00:00 20.74939 -156.91286 9056 ft 186 kts 107°
2026-04-22 00:00 20.74579 -156.89953 9061 ft 187 kts 107°
2026-04-22 00:00 20.74216 -156.88614 9059 ft 187 kts 107°
2026-04-22 00:00 20.73855 -156.87279 9059 ft 187 kts 108°
2026-04-22 00:01 20.73494 -156.85943 9016 ft 189 kts 107°
2026-04-22 00:01 20.73131 -156.84605 8860 ft 185 kts 107°
2026-04-22 00:01 20.72774 -156.83288 8670 ft 185 kts 107°
2026-04-22 00:01 20.72418 -156.81973 8470 ft 184 kts 107°
2026-04-22 00:02 20.72067 -156.80677 8273 ft 184 kts 107°
2026-04-22 00:02 20.71706 -156.79344 8073 ft 184 kts 107°
2026-04-22 00:02 20.71351 -156.78035 7873 ft 183 kts 107°
2026-04-22 00:02 20.71000 -156.76736 7620 ft 185 kts 107°
2026-04-22 00:03 20.70642 -156.75419 7386 ft 185 kts 107°
2026-04-22 00:03 20.70285 -156.74103 7148 ft 185 kts 106°
2026-04-22 00:03 20.69928 -156.72789 6909 ft 184 kts 106°
2026-04-22 00:03 20.69571 -156.71476 6669 ft 184 kts 106°
2026-04-22 00:04 20.69216 -156.70167 6437 ft 183 kts 106°
2026-04-22 00:04 20.68860 -156.68857 6184 ft 184 kts 105°
2026-04-22 00:04 20.68504 -156.67548 5932 ft 183 kts 106°
2026-04-22 00:04 20.68150 -156.66242 5682 ft 183 kts 106°
2026-04-22 00:05 20.67797 -156.64944 5434 ft 182 kts 105°
2026-04-22 00:05 20.67628 -156.63623 5180 ft 179 kts 90°
2026-04-22 00:05 20.67609 -156.62296 4944 ft 178 kts 89°
2026-04-22 00:05 20.67594 -156.60976 4694 ft 177 kts 89°
2026-04-22 00:06 20.67581 -156.59659 4427 ft 178 kts 90°
2026-04-22 00:06 20.67570 -156.58342 4184 ft 177 kts 89°
2026-04-22 00:06 20.67634 -156.57043 3930 ft 175 kts 73°
2026-04-22 00:06 20.68351 -156.56022 3697 ft 175 kts 35°
2026-04-22 00:07 20.69499 -156.55654 3484 ft 174 kts
2026-04-22 00:07 20.70702 -156.55556 3265 ft 173 kts
2026-04-22 00:07 20.71898 -156.55427 3044 ft 173 kts 14°
2026-04-22 00:07 20.73030 -156.55104 3000 ft 162 kts 15°
2026-04-22 00:08 20.74021 -156.54654 3002 ft 151 kts 31°
2026-04-22 00:08 20.74889 -156.54068 3001 ft 145 kts 34°
2026-04-22 00:08 20.75713 -156.53479 2998 ft 140 kts 34°
2026-04-22 00:08 20.76471 -156.52925 2951 ft 126 kts 34°
2026-04-22 00:09 20.77177 -156.52396 2811 ft 122 kts 34°
2026-04-22 00:09 20.77873 -156.51877 2662 ft 122 kts 34°
2026-04-22 00:09 20.78568 -156.51355 2492 ft 121 kts 33°
2026-04-22 00:09 20.79244 -156.50850 2342 ft 118 kts 33°
2026-04-22 00:10 20.79922 -156.50342 2188 ft 121 kts 33°
2026-04-22 00:10 20.80609 -156.49834 2039 ft 119 kts 36°
2026-04-22 00:10 20.81294 -156.49321 1882 ft 121 kts 34°
2026-04-22 00:10 20.81980 -156.48809 1803 ft 118 kts 35°
2026-04-22 00:11 20.82676 -156.48283 1631 ft 127 kts 37°
2026-04-22 00:11 20.83363 -156.47720 1459 ft 122 kts 36°
2026-04-22 00:11 20.83979 -156.47233 1416 ft 104 kts 33°
2026-04-22 00:11 20.84556 -156.46847 1410 ft 95 kts 31°
2026-04-22 00:12 20.85138 -156.46466 1269 ft 99 kts 32°
2026-04-22 00:12 20.85689 -156.46039 1000 ft 93 kts 37°
2026-04-22 00:12 20.86186 -156.45664 763 ft 87 kts 30°
2026-04-22 00:12 20.86700 -156.45294 632 ft 92 kts 35°
2026-04-22 00:13 20.87209 -156.44909 553 ft 89 kts 34°
2026-04-22 00:13 20.87722 -156.44519 410 ft 92 kts 48°
2026-04-22 00:13 20.88209 -156.44104 293 ft 87 kts 47°
2026-04-22 00:13 20.88705 -156.43760 146 ft 82 kts 51°
2026-04-22 00:14 20.89144 -156.43450 53 ft 68 kts 37°
2026-04-22 00:14 20.89489 -156.43192 32 ft 54 kts 35°
2026-04-22 00:14 20.89784 -156.42985 28 ft 48 kts 33°
2026-04-22 00:14 20.90020 -156.42848 26 ft 16 kts 353°
2026-04-22 00:15 20.90006 -156.42998 29 ft 23 kts 222°
2026-04-22 00:15 20.89951 -156.43026 28 ft 0 kts 207°
2026-04-22 00:15 20.89867 -156.43084 29 ft 29 kts 215°
2026-04-22 00:15 20.89666 -156.43234 30 ft 34 kts 215°
2026-04-22 00:16 20.89492 -156.43362 30 ft 20 kts 214°
2026-04-22 00:16 20.89479 -156.43372 30 ft 0 kts 214°
2026-04-22 00:17 20.89465 -156.43382 30 ft 17 kts 213°
2026-04-22 00:17 20.89266 -156.43529 30 ft 36 kts 215°
2026-04-22 00:17 20.89080 -156.43666 31 ft 29 kts 215°
2026-04-22 00:17 20.88941 -156.43770 31 ft 21 kts 223°
2026-04-22 00:18 20.88994 -156.43855 31 ft 12 kts 319°
2026-04-22 00:18 20.89023 -156.43893 31 ft 0 kts 305°